Regional Weather Roundup
Issued by NWS

Home | Current Version | Previous Version | Graphics & Text | Print | Product List | Glossary On
Versions: 1 2 3 4 5 6 7 8 9 10 11 12 13 14 15 16 17 18 19 20 21 22 23 24 25 26 27 28 29 30 31 32 33 34 35 36 37 38 39 40 41 42 43 44 45 46 47 48 49 50
000
ASUS43 KBIS 281102
RWRND

NORTH DAKOTA REGIONAL WEATHER ROUNDUP
NATIONAL WEATHER SERVICE BISMARCK ND
600 AM CDT SAT MAY 28 2016

NOTE: "FAIR" INDICATES FEW OR NO CLOUDS BELOW 12,000 FEET WITH NO
SIGNIFICANT WEATHER AND/OR OBSTRUCTIONS TO VISIBILITY.


NDZ001>003-009>011-017-281200-
NORTHWEST NORTH DAKOTA

CITY           SKY/WX    TMP DP  RH WIND       PRES   REMARKS
WILLISTON      CLOUDY    56  52  86 E7        29.89R
MINOT          CLOUDY    56  53  90 NE8       29.88F
MINOT AFB      CLOUDY    53  52  95 NE7       29.88S
$$

NDZ018>021-031>035-040>046-281200-
SOUTHWEST NORTH DAKOTA

CITY           SKY/WX    TMP DP  RH WIND       PRES   REMARKS
BISMARCK       CLOUDY    56  56 100 NE10      29.85S FOG
DICKINSON      CLEAR     43  42  97 N5        29.85R FOG
GARRISON         N/A     56  54  93 NE3       29.87S
HETTINGER ARPT CLOUDY    43  41  93 CALM      29.87S
$$

NDZ004>008-012>016-024-026-027-054-281200-
NORTHEAST NORTH DAKOTA

CITY           SKY/WX    TMP DP  RH WIND       PRES   REMARKS
GRAND FORKS    CLOUDY    61  57  87 SE5       29.82S
GRND FRKS AFB  CLOUDY    60  60 100 S3        29.83S
DEVILS LAKE    CLOUDY    56  55  97 N8        29.87S
$$

NDZ022-023-025-028>030-036>039-047>053-281200-
SOUTHEAST NORTH DAKOTA

CITY           SKY/WX    TMP DP  RH WIND       PRES   REMARKS
FARGO          CLOUDY    59  56  89 NE5       29.81R
JAMESTOWN      CLOUDY    59  58  96 N7        29.81S FOG
$$





USA.gov is the U.S. government's official web portal to all federal, state and local government web resources and services.